Regional Weather Roundup
Issued by NWS Wakefield, VA

Home | Current Version | Previous Version | Graphics & Text | Print | Product List | Glossary On
Versions: 1 2 3 4 5 6 7 8 9 10 11 12 13 14 15 16 17 18 19 20 21 22 23 24 25 26 27 28 29 30 31 32 33 34 35 36 37 38 39 40 41 42 43 44 45 46 47 48 49 50
000
ASUS41 KAKQ 261410
RWRAKQ

REGIONAL WEATHER ROUNDUP
NATIONAL WEATHER SERVICE WAKEFIELD VA
900 AM EST WED NOV 26 2014

Note: "fair" indicates few or no clouds below 12,000 feet with no
significant weather and/or obstructions to visibility. * = Denotes
station may not report precipitation (e.g., rain,snow,etc.),
thunder or fog.

VAZ042-051-052>054-056-261500-
NORTHERN VIRGINIA

CITY           SKY/WX    TMP DP  RH WIND       PRES   REMARKS
WASH NATIONAL  RAIN      43  37  79 NE12      30.09R
DULLES         RAIN      37  36  93 NE13      30.04F FOG
FORT BELVOIR   RAIN      41  38  90 VRB5      30.06F FOG
QUANTICO       RAIN      42  37  82 E18G28    30.06F
FREDERICKSBRG* LGT RAIN  42  42  99 NE9G16    30.05F
STAFFORD*      RAIN      41  41 100 NE9G18    30.08F
WARRENTON      RAIN      40  40 100 NE10      30.05F
CULPEPER*      RAIN      39  39 100 N6        30.07F
MANASSAS*      LGT RAIN  39  39 100 NE9       30.05S
LEESBURG*      RAIN      37  37 100 NE8       30.07F
WINCHESTER     LGT SNOW  34  32  93 CALM      30.04F VSB 3/4
FRONT ROYAL*   CLOUDY    32  32 100 CALM      30.08R VSB 1/2
LURAY*         LGT SNOW  34  34 100 CALM      30.06R VSB 3/4
$$

VAZ048-049-060>072-079>083-261500-
CENTRAL AND SOUTH CENTRAL VIRGINIA

CITY           SKY/WX    TMP DP  RH WIND       PRES   REMARKS
RICHMOND       RAIN      45  41  86 N13G21    30.00F FOG
CHESTERFIELD*  CLOUDY    43  30  61 N12G22    30.00F
PETERSBURG*    LGT RAIN  45  43  95 N10G17    29.98F
HANOVER        RAIN      42  40  92 NE6       30.03F FOG
TAPPAHANNOCK*  RAIN      44  40  87 N9        30.01F
QUINTON*       CLOUDY    43  42  96 N7        29.98F
CHARLOTTSVILLE RAIN      38  36  92 N8        30.06S FOG
GORDONSVILLE*  CLOUDY    39  37  93 N8        30.05R
ORANGE*        RAIN      39  37  93 N9G16     30.07S
LOUISA*        RAIN      41  39  93 N9        30.03R
BUMPASS*       CLOUDY    39  37  92 NE5       30.04S
FARMVILLE*     LGT RAIN  43  43 100 N7        29.98S
CREWE*         CLOUDY    42  40  94 N7        29.99F
FORT PICKETT*  CLOUDY    42  41  97 N12G17    29.97F
CHASE CITY*    CLOUDY    44  44 100 N7        29.98R
CLARKSVILLE*   CLOUDY    43  41  93 N10G16    30.00R
SOUTH HILL*    CLOUDY    42  41  95 N12G23    30.04R
LAWRENCEVILLE* CLOUDY    43  42  97 N7        29.93F
$$

VAZ088>098-261500-
SOUTHEAST VIRGINIA

CITY           SKY/WX    TMP DP  RH WIND       PRES   REMARKS
NORFOLK        HVY RAIN  48  45  89 N17G26    29.88F FOG
VIRGINIA BEACH RAIN      51  48  89 N16G24    29.86F FOG
NORFOLK NAVAL  LGT RAIN  49  45  86 N29G40    29.88F FOG
WEST POINT*    CLOUDY    46  44  90 N7G23     29.98F
SALUDA*        CLOUDY    44  42  93 N13G21    29.99R
NEWPORT NEWS   HVY RAIN  48  44  86 N14G24    29.93F VSB 1
LANGLEY AFB    LGT RAIN  46 N/A N/A N24G32    29.90F
FORT EUSTIS    RAIN      45  45 100 N9G22     29.91F FOG
WILLIAMSBURG*  CLOUDY    46  46 100 NE7G20    29.94F
HR EXEC AP*    CLOUDY    46  43  87 N14G20    29.89F
FRANKLIN*      CLOUDY    45  45 100 N10G16    29.91S
WAKEFIELD      RAIN      45  42  89 N9G18     29.92F FOG
$$

VAZ020-022-025-037-045-261500-
WEST CENTRAL AND SOUTHWEST VIRGINIA

CITY           SKY/WX    TMP DP  RH WIND       PRES   REMARKS
STAUNTON*      SNOW      33  32  96 CALM      30.07R VSB 1/2
WAYNESBORO*    CLOUDY    32  32  99 N5        30.03R VSB 1/2
HOT SPRINGS VA SNOW      32  32 100 NE5       29.91F VSB 1/4
LYNCHBURG      RAIN      38  37  97 NE15      30.00F FOG
DANVILLE       RAIN      44  40  85 NE9       29.99R
SOUTH BOSTON*  CLOUDY    42  40  94 NE7       30.02R
MARTINSVILLE   LGT RAIN  41  41 100 N8        30.03R
ROANOKE        LGT SNOW  32  32 100 CALM      30.06R FOG
BLACKSBURG     LGT SNOW  34  34 100 CALM      30.02R VSB 3/4
DUBLIN*        LGT SNOW  34  34 100 CALM      30.02R VSB 3/4
MARION*        SNOW      34  33  96 CALM      30.01S VSB 1/4
HILLSVILLE*    SNOW      32  32 100 N5        29.96S VSB 1/2
RICHLANDS*     SNOW      35  33  94 CALM      29.98F VSB<1/4
WISE*          LGT SNOW  34  34 100 CALM      30.00S
ABINGDON*      RAIN      37  35  94 E3        29.99S
$$

MDZ021>025-VAZ099-100-261500-
SOUTHERN MARYLAND AND THE DELMARVA PENINSULA

CITY           SKY/WX    TMP DP  RH WIND       PRES   REMARKS
PATUXENT RIVER HVY RAIN  44  41  89 N15       30.06R FOG
BAY BRIDGE APT RAIN      41  37  87 NE7G18    30.10R
LEONARDTOWN    CLOUDY    43  39  87 N5        30.08R
DOVER          RAIN      41  41 100 N14       30.04S FOG
GEORGETOWN     LGT RAIN  44  42  93 NE18G26   30.03S FOG
EASTON         RAIN      43  43 100 NE10G17   30.09R FOG
CAMBRIDGE      CLOUDY    43  41  93 N15       30.04R
SALISBURY      RAIN      46  42  86 N13G22    30.00F FOG
OCEAN CITY     HVY RAIN  47  45  93 NE14G25   29.97S FOG
WALLOPS ISLAND RAIN      46  44  93 NE21G35   29.95F FOG
ACCOMACK*      RAIN      45  43  93 N10G18    29.93F
$$

NCZ012>017-030>032-261500-
NORTH CENTRAL AND EASTERN NORTH CAROLINA

CITY           SKY/WX    TMP DP  RH WIND       PRES   REMARKS
ROANOKE RAPIDS MIX PCPN  43  43 100 N16G25    29.92S VSB 1
RALEIGH        LGT RAIN  45  42  89 VRB6G20   29.97R FOG
ELIZABETH CITY RAIN      54  50  87 N21G32    29.79F FOG
AHOSKIE*       LGT RAIN  44  42  95 N21G29    29.86F
EDENTON*       RAIN      49  48  98 N13G23    29.80F
CURRITUCK*     HVY RAIN  53  51  93 N17G26    29.83R
KILL DEVIL HLS RAIN      61  61  99 CALM      29.72F
MANTEO         LGT RAIN  61  61  99 S16       29.74F
CAPE HATTERAS  CLOUDY    71  69  93 S21G31    29.76F FOG
TARBORO*       HVY RAIN  45  43  93 N14G21    29.88F
GOLDSBORO      LGT RAIN  46  46 100 N16G26    29.84F
WASHINGTON     CLOUDY    48  46  95 N10G20    29.79R
GREENVILLE     LGT RAIN  45  45 100 N13G24    29.86R
NEW BERN       HVY RAIN  67  63  87 N6        29.72F FOG
WILMINGTON     HVY RAIN  55  54  96 NW17      29.78R FOG
$$

VAZ048-261500-
ELSEWHERE

CITY           SKY/WX    TMP DP  RH WIND       PRES   REMARKS
HARRISBURG PA  LGT RAIN  36  33  89 NE6       30.12R FOG
BALTIMORE      RAIN      41  39  93 N6        30.11R FOG
ANNAPOLIS      RAIN      41  37  86 NE13G22   30.09R FOG
ANDREWS AFB    HVY RAIN  39  37  93 E12       30.06R FOG
PHILADELPHIA   RAIN      40  37  89 NE14G22   30.12R FOG
WILDWOOD NJ*   CLOUDY    43  37  81 N16G22    29.99F
HENDERSON NC   LGT RAIN  43  41  92 N10G17    29.96R
GREENSBORO     LGT RAIN  43  41  93 NE12      29.97R FOG
ROCKY MOUNT    LGT RAIN  46  43  89 N20G26    29.89F FOG
$$

VAZ100-261500-
MARINE

STATION/POSITION TIME  TEMP    WIND        PRES    WAVE   SWELL
                       AIR SEA DIR/SP/G            HT/PER HT/PER
                 (UTC) (F)     (DEG/KT/KT) (MB)    (FT/S) (FT/S)
CAPE MAY NJ      1400   43 51   20/  8/ 13 1016.2F
LEWES DE         1400   45 50   40/ 21/ 26 1016.4S
15NM E FENWICK I 1400   49 55              1013.5F   7/ 6
OCEAN-CITY-INLET 1400   47 50   40/  8/ 17 1014.6F
WACHAPREAGUE VA  1400   47 51   20/ 17/ 32 1013.2F
THOMAS POINT MD  1400   41 48   40/ 18/ 20 1020.0R
GOOSES REEF MD   1400   42 49   40/ 21/ 25 1018.8R   2/ 3
COVE POINT MD    1400   42      40/ 19/ 23 1018.2R
SOLOMONS ISLAND  1400      50                N/A
BISHOPS HEAD MD  1400   44 47   20/ 11/ 16 1015.8F
PINEY POINT MD   1400           30/ 11/ 13   N/A
POTOMAC MD       1400   45 50   30/ 17/ 21 1015.9R   1/ 3
CAMBRIDGE MD     1400   43 46  360/ 12/ 17 1018.3R
LEWISETTA VA     1400   45 49   20/ 10/ 16 1016.1F
RAPPAHANNOCK LGT 1400           10/ 28/ 32 1013.6F
STINGRAY PT      1400   46 50   20/ 23/ 27 1015.0R   3/ 4
YORK RVR RNG VA  1400   46      30/ 27/ 32 1012.7R
YORKTOWN VA      1400   46 51   10/ 16/ 19 1013.7F
JAMESTOWN VA     1400   44 51   40/ 10/ 21   N/A     0
DOMINION TERM VA 1400   47      80/  3/  8 1013.1R
KIPTOPEKE VA     1400      56   30/ 14/ 28   N/A
CHES BAY BRIDGE  1400   48 52   10/ 24/ 31 1011.2R
CAPE HENRY VA    1400   49      10/ 33/ 37 1009.5F
CHESAPEAKE LGHT  1300   51      50/ 38/ 41 1010.1F
WILLOUBY STN VA  1400   46      10/ 23/ 30 1011.0S
S CRANEY ISL VA  1400          340/ 24/ 27 1011.5F
CAPE HENRY BUOY  1300      56                N/A     9/ 7   2/11
1ST LANDING BUOY 1400   49 53   10/ 25/ 33 1011.2F   6/ 5
CAPE CHARLES BUO 1400      55                N/A     9/ 7   5/17
64NM E OF VA BCH 1400   70 68  150/ 16/ 19 1006.6F   8/ 8   5/ 8
DUCK PIER NC     1400   57 58   10/ 15/ 23 1006.1F
44100 DUCK FRF   1400      60                N/A     8/ 7
44056 DUCK FRF   1400      58                N/A     8/ 7   2/11
OREGON INLET NC  1400   64 57  170/ 14/ 18 1007.2F
HATTERAS NC      1400   73 62  180/ 18/ 24 1008.0R
DIAMOND SHLS NC  1400   76     170/ 23/ 27 1007.1F  11/ 7
CAPE LOOKOUT NC  1300   68     170/ 15/ 16 1007.8F
$$



USA.gov is the U.S. government's official web portal to all federal, state and local government web resources and services.